Montpelier, VT

11:08 AM EDT on October 18, 2017 (GMT -0400)
Knapp State

Weather History for KMPV - April, 2014

Change the Weather History Date:

Tuesday, April 15, 2014

  Actual Average Record
Temperature  
Mean Temperature 44 °F 42 °F  
Max Temperature 63 °F 53 °F 78 °F (2003)
Min Temperature 25 °F 32 °F 19 °F (1981)
Degree Days  
Heating Degree Days 21 23  
Month to date heating degree days 376 389  
Since 1 July heating degree days 7990 7414  
Cooling Degree Days 0 0  
Month to date cooling degree days 0 0  
Year to date cooling degree days 0 0  
Moisture  
Dew Point 41 °F    
Average Humidity 86    
Maximum Humidity 100    
Minimum Humidity 72    
Precipitation  
Precipitation 0.47 in 0.09 in 0.92 in (2007)
Month to date precipitation 1.34 1.30  
Year to date precipitation 8.70 8.18  
Sea Level Pressure  
Sea Level Pressure 29.69 in    
Wind  
Wind Speed 14 mph (WNW)    
Max Wind Speed 28 mph    
Max Gust Speed 38 mph    
Visibility 5 miles    
Events Rain , Snow    
T = Trace of Precipitation, MM = Missing Value Source: NWS Daily Summary

Daily Weather History Graph

Daily Weather History Graph

Search for Another Location

Airport or City:

Trip Planner

Search our weather history database for the weather conditions in past years. The results will help you decide how hot, cold, wet, or windy it might be!

Date:

Astronomy

Apr. 15, 2014 Rise Set
Actual Time 6:06 AM EDT 7:34 PM EDT
Civil Twilight 5:36 AM EDT 8:04 PM EDT
Nautical Twilight 5:00 AM EDT 8:41 PM EDT
Astronomical Twilight 4:21 AM EDT 9:20 PM EDT
Moon 8:14 PM EDT (4/15) 6:12 AM EDT (4/15)
Length of Visible Light 14h 28m
Length of Day
13h 27m
Full, 100% of the Moon is Illuminated
Apr 15
Full
Apr 22
Last Quarter
Apr 29
New
May 6
First Quarter
May 14
Full

Hourly Weather History & Observations

Time (EDT) Temp. Windchill Dew Point Humidity Pressure Visibility Wind Dir Wind Speed Gust Speed Precip Events Conditions
12:51 AM 57.9 °F - 50.0 °F 75% 29.77 in 10.0 mi South 10.4 mph - 0.00 in   Overcast
1:51 AM 57.2 °F - 48.2 °F 72% 29.77 in 10.0 mi South 11.5 mph - N/A   Overcast
2:51 AM 55.0 °F - 50.0 °F 83% 29.75 in 10.0 mi South 8.1 mph - 0.00 in   Mostly Cloudy
3:51 AM 55.9 °F - 50.0 °F 80% 29.75 in 10.0 mi South 8.1 mph - N/A   Overcast
4:51 AM 55.0 °F - 51.1 °F 86% 29.73 in 10.0 mi South 9.2 mph - 0.00 in   Mostly Cloudy
5:51 AM 55.9 °F - 51.1 °F 84% 29.72 in 10.0 mi South 9.2 mph - 0.00 in Rain Light Rain
6:51 AM 57.0 °F - 53.1 °F 87% 29.70 in 10.0 mi South 12.7 mph - 0.01 in   Mostly Cloudy
7:51 AM 57.9 °F - 55.0 °F 90% 29.67 in 8.0 mi South 18.4 mph 24.2 mph 0.00 in Rain Light Rain
8:51 AM 60.1 °F - 55.0 °F 83% 29.63 in 10.0 mi SSE 20.7 mph 27.6 mph 0.00 in   Mostly Cloudy
9:24 AM 61.0 °F - 55.0 °F 81% 29.61 in 10.0 mi SSE 20.7 mph 28.8 mph N/A   Overcast
9:51 AM 61.0 °F - 54.0 °F 78% 29.61 in 10.0 mi South 17.3 mph 24.2 mph N/A   Overcast
10:07 AM 61.0 °F - 54.0 °F 78% 29.61 in 10.0 mi South 19.6 mph 27.6 mph N/A   Overcast
10:51 AM 60.1 °F - 55.0 °F 83% 29.59 in 7.0 mi South 19.6 mph 32.2 mph 0.00 in Rain Light Rain
11:51 AM 63.0 °F - 55.0 °F 75% 29.55 in 10.0 mi South 21.9 mph 29.9 mph 0.00 in   Mostly Cloudy
12:51 PM 60.8 °F - 57.2 °F 88% 29.52 in 6.0 mi South 18.4 mph 27.6 mph N/A Rain Light Rain
1:51 PM 60.8 °F - 57.2 °F 88% 29.47 in 3.0 mi SSE 20.7 mph 26.5 mph N/A Rain Rain
2:51 PM 61.0 °F - 57.9 °F 90% 29.49 in 9.0 mi SSW 13.8 mph 20.7 mph 0.06 in Rain Light Rain
3:46 PM 48.2 °F - 48.2 °F 100% 29.50 in 5.0 mi NNW 13.8 mph 21.9 mph 0.03 in Rain Light Rain
3:51 PM 48.2 °F - 46.4 °F 93% 29.50 in 5.0 mi NW 11.5 mph 21.9 mph N/A Rain Light Rain
4:05 PM 48.9 °F - 46.9 °F 93% 29.50 in 5.0 mi NW 9.2 mph 18.4 mph 0.01 in Rain Light Rain
4:21 PM 48.0 °F - 46.0 °F 93% 29.53 in 6.0 mi WNW 16.1 mph 27.6 mph 0.03 in Rain Light Rain
4:34 PM 46.9 °F - 46.0 °F 97% 29.52 in 2.0 mi NW 11.5 mph 24.2 mph 0.07 in Rain Rain
4:49 PM 46.4 °F 41.9 °F 46.4 °F 100% 29.55 in 3.0 mi NNW 9.2 mph - 0.09 in Rain Light Rain
4:51 PM 46.9 °F - 46.0 °F 97% 29.56 in 4.0 mi NNW 8.1 mph - 0.09 in Rain Light Rain
5:03 PM 46.9 °F - 45.0 °F 93% 29.55 in 7.0 mi North 8.1 mph - 0.00 in Rain Light Rain
5:25 PM 46.0 °F 40.6 °F 45.0 °F 96% 29.59 in 1.8 mi WNW 11.5 mph 16.1 mph 0.02 in Rain Rain
5:46 PM 42.8 °F 34.8 °F 42.8 °F 100% 29.60 in 2.0 mi WNW 17.3 mph 27.6 mph 0.05 in Rain Light Rain
5:51 PM 43.0 °F 36.0 °F 41.0 °F 93% 29.62 in 2.5 mi NW 13.8 mph 25.3 mph 0.05 in Rain Light Rain
5:58 PM 43.0 °F 36.4 °F 41.0 °F 93% 29.60 in 2.5 mi NW 12.7 mph 21.9 mph 0.01 in Rain Light Rain
6:07 PM 42.1 °F 36.1 °F 41.0 °F 96% 29.61 in 4.0 mi WNW 10.4 mph 20.7 mph 0.01 in Rain Light Rain
6:35 PM 41.0 °F 33.5 °F 39.0 °F 93% 29.64 in 10.0 mi NW 13.8 mph - 0.01 in   Overcast
6:51 PM 39.9 °F 31.8 °F 37.9 °F 93% 29.66 in 5.0 mi NW 15.0 mph 31.1 mph 0.03 in Rain Light Rain
7:51 PM 35.1 °F 25.5 °F 33.1 °F 92% 29.74 in 6.0 mi NW 15.0 mph 28.8 mph 0.03 in Rain Light Rain
8:24 PM 34.0 °F 25.5 °F 33.1 °F 96% 29.74 in 6.0 mi NW 11.5 mph - 0.01 in   Overcast
8:51 PM 33.1 °F 24.9 °F 32.0 °F 96% 29.79 in 6.0 mi WNW 10.4 mph - 0.02 in   Overcast
8:57 PM 33.1 °F 23.9 °F 32.0 °F 96% 29.77 in 2.5 mi WNW 12.7 mph - 0.00 in Snow Light Snow
9:00 PM 33.1 °F 24.9 °F 32.0 °F 96% 29.77 in 1.8 mi NW 10.4 mph - 0.00 in Snow Light Snow
9:17 PM 32.0 °F 23.6 °F 30.9 °F 96% 29.78 in 2.0 mi NW 10.4 mph - 0.01 in Snow Light Snow
9:26 PM 32.0 °F 23.0 °F 30.9 °F 96% 29.79 in 1.5 mi NW 11.5 mph 19.6 mph 0.01 in Snow Light Snow
9:51 PM 30.9 °F 21.7 °F 30.0 °F 96% 29.83 in 1.5 mi NW 11.5 mph 19.6 mph 0.02 in Snow Light Snow
9:56 PM 30.9 °F 21.2 °F 30.0 °F 96% 29.80 in 1.2 mi NW 12.7 mph 20.7 mph 0.00 in Snow Light Snow
10:11 PM 30.9 °F 20.7 °F 28.9 °F 92% 29.81 in 1.0 mi NNW 13.8 mph 23.0 mph 0.00 in Snow Light Snow
10:18 PM 30.0 °F 18.7 °F 28.9 °F 96% 29.80 in 1.0 mi NW 16.1 mph 25.3 mph 0.01 in Snow Light Snow
10:25 PM 30.0 °F 20.5 °F 28.9 °F 96% 29.81 in 0.8 mi NW 11.5 mph 24.2 mph 0.01 in Snow Light Snow
10:27 PM 30.0 °F 20.5 °F 28.9 °F 96% 29.81 in 1.0 mi WNW 11.5 mph 20.7 mph 0.01 in Snow Light Snow
10:31 PM 30.0 °F 20.5 °F 28.9 °F 96% 29.82 in 1.5 mi NW 11.5 mph 20.7 mph 0.01 in Snow Light Snow
10:36 PM 30.0 °F 20.5 °F 28.9 °F 96% 29.83 in 3.0 mi NW 11.5 mph - 0.01 in Snow Light Snow
10:46 PM 30.2 °F 20.8 °F 28.4 °F 93% 29.82 in 4.0 mi NW 11.5 mph - 0.01 in Snow Light Snow
10:51 PM 30.0 °F 20.5 °F 28.0 °F 92% 29.86 in 5.0 mi NW 11.5 mph - 0.01 in Snow Light Snow
11:02 PM 30.0 °F 21.1 °F 28.9 °F 96% 29.84 in 2.0 mi NW 10.4 mph - 0.00 in Snow Light Snow
11:09 PM 28.9 °F 18.2 °F 28.0 °F 96% 29.83 in 1.2 mi NNW 13.8 mph - 0.00 in Snow Light Snow
11:17 PM 28.9 °F 19.2 °F 27.0 °F 92% 29.82 in 0.8 mi NW 11.5 mph - 0.01 in Snow Light Snow
11:28 PM 28.9 °F 17.7 °F 28.0 °F 96% 29.86 in 0.8 mi WNW 15.0 mph 21.9 mph 0.01 in Snow Light Snow
11:42 PM 27.0 °F 16.1 °F 26.1 °F 96% 29.86 in 1.0 mi NW 12.7 mph 21.9 mph 0.01 in Snow Light Snow
11:51 PM 27.0 °F 16.1 °F 25.0 °F 92% 29.89 in 1.2 mi NW 12.7 mph 20.7 mph 0.01 in Snow Light Snow